Year,Month,Day,Hour,Minute,Value (Times are PST for temperature in C)
2021,06,29,00,00,25.50
2021,06,29,00,01,25.50
2021,06,29,00,02,25.50
2021,06,29,00,03,25.40
2021,06,29,00,04,25.40
2021,06,29,00,05,25.40
2021,06,29,00,06,25.40
2021,06,29,00,07,25.40
2021,06,29,00,08,25.40
2021,06,29,00,09,25.40
2021,06,29,00,10,25.40
2021,06,29,00,11,25.40
2021,06,29,00,12,25.40
2021,06,29,00,13,25.40
2021,06,29,00,14,25.40
2021,06,29,00,15,25.40
2021,06,29,00,16,25.40
2021,06,29,00,17,25.40
2021,06,29,00,18,25.40
2021,06,29,00,19,25.50
2021,06,29,00,20,25.50
2021,06,29,00,21,25.50
2021,06,29,00,22,25.50
2021,06,29,00,23,25.50
2021,06,29,00,24,25.50
2021,06,29,00,25,25.40
2021,06,29,00,26,25.40
2021,06,29,00,27,25.40
2021,06,29,00,28,25.30
2021,06,29,00,29,25.30
2021,06,29,00,30,25.20
2021,06,29,00,31,25.10
2021,06,29,00,32,25.10
2021,06,29,00,33,25.00
2021,06,29,00,34,24.90
2021,06,29,00,35,24.90
2021,06,29,00,36,24.80
2021,06,29,00,37,24.80
2021,06,29,00,38,24.80
2021,06,29,00,39,24.70
2021,06,29,00,40,24.70
2021,06,29,00,41,24.60
2021,06,29,00,42,24.60
2021,06,29,00,43,24.50
2021,06,29,00,44,24.50
2021,06,29,00,45,24.40
2021,06,29,00,46,24.30
2021,06,29,00,47,24.30
2021,06,29,00,48,24.20
2021,06,29,00,49,24.10
2021,06,29,00,50,24.10
2021,06,29,00,51,24.10
2021,06,29,00,52,24.10
2021,06,29,00,53,24.00
2021,06,29,00,54,23.90
2021,06,29,00,55,23.90
2021,06,29,00,56,23.90
2021,06,29,00,57,23.90
2021,06,29,00,58,23.90
2021,06,29,00,59,23.90
2021,06,29,01,00,23.90
2021,06,29,01,01,23.90
2021,06,29,01,02,23.90
2021,06,29,01,03,23.90
2021,06,29,01,04,23.90
2021,06,29,01,05,24.00
2021,06,29,01,06,24.10
2021,06,29,01,07,23.90
2021,06,29,01,08,23.90
2021,06,29,01,09,23.90
2021,06,29,01,10,23.90
2021,06,29,01,11,23.90
2021,06,29,01,12,23.90
2021,06,29,01,13,23.80
2021,06,29,01,14,23.80
2021,06,29,01,15,23.90
2021,06,29,01,16,23.90
2021,06,29,01,17,23.90
2021,06,29,01,18,23.90
2021,06,29,01,19,23.90
2021,06,29,01,20,23.90
2021,06,29,01,21,23.90
2021,06,29,01,22,23.90
2021,06,29,01,23,24.10
2021,06,29,01,24,24.10
2021,06,29,01,25,24.10
2021,06,29,01,26,24.10
2021,06,29,01,27,24.10
2021,06,29,01,28,24.10
2021,06,29,01,29,24.10
2021,06,29,01,30,24.10
2021,06,29,01,31,24.10
2021,06,29,01,32,24.10
2021,06,29,01,33,24.10
2021,06,29,01,34,24.10
2021,06,29,01,35,24.10
2021,06,29,01,36,24.10
2021,06,29,01,37,24.20
2021,06,29,01,38,24.20
2021,06,29,01,39,24.20
2021,06,29,01,40,24.10
2021,06,29,01,41,24.10
2021,06,29,01,42,24.10
2021,06,29,01,43,24.10
2021,06,29,01,44,24.00
2021,06,29,01,45,23.90
2021,06,29,01,46,23.90
2021,06,29,01,47,23.80
2021,06,29,01,48,23.80
2021,06,29,01,49,23.80
2021,06,29,01,50,23.70
2021,06,29,01,51,23.70
2021,06,29,01,52,23.70
2021,06,29,01,53,23.70
2021,06,29,01,54,23.70
2021,06,29,01,55,23.70
2021,06,29,01,56,23.70
2021,06,29,01,57,23.70
2021,06,29,01,58,23.70
2021,06,29,01,59,23.60
2021,06,29,02,00,23.50
2021,06,29,02,01,23.40
2021,06,29,02,02,23.30
2021,06,29,02,03,23.20
2021,06,29,02,04,23.10
2021,06,29,02,05,23.00
2021,06,29,02,06,22.90
2021,06,29,02,07,22.60
2021,06,29,02,08,22.30
2021,06,29,02,09,22.20
2021,06,29,02,10,22.00
2021,06,29,02,11,21.90
2021,06,29,02,12,21.80
2021,06,29,02,13,21.70
2021,06,29,02,14,21.60
2021,06,29,02,15,21.60
2021,06,29,02,16,21.50
2021,06,29,02,17,21.40
2021,06,29,02,18,21.40
2021,06,29,02,19,21.40
2021,06,29,02,20,21.30
2021,06,29,02,21,21.30
2021,06,29,02,22,21.30
2021,06,29,02,23,21.30
2021,06,29,02,24,21.30
2021,06,29,02,25,21.30
2021,06,29,02,26,21.30
2021,06,29,02,27,21.30
2021,06,29,02,28,21.30
2021,06,29,02,29,21.30
2021,06,29,02,30,21.30
2021,06,29,02,31,21.30
2021,06,29,02,32,21.30
2021,06,29,02,33,21.30
2021,06,29,02,34,21.40
2021,06,29,02,35,21.40
2021,06,29,02,36,21.40
2021,06,29,02,37,21.40
2021,06,29,02,38,21.40
2021,06,29,02,39,21.40
2021,06,29,02,40,21.30
2021,06,29,02,41,21.30
2021,06,29,02,42,21.30
2021,06,29,02,43,21.30
2021,06,29,02,44,21.30
2021,06,29,02,45,21.30
2021,06,29,02,46,21.30
2021,06,29,02,47,21.30
2021,06,29,02,48,21.30
2021,06,29,02,49,21.30
2021,06,29,02,50,21.30
2021,06,29,02,51,21.30
2021,06,29,02,52,21.30
2021,06,29,02,53,21.30
2021,06,29,02,54,21.30
2021,06,29,02,55,21.30
2021,06,29,02,56,21.30
2021,06,29,02,57,21.40
2021,06,29,02,58,21.40
2021,06,29,02,59,21.50
2021,06,29,03,00,21.60
2021,06,29,03,01,21.60
2021,06,29,03,02,21.70
2021,06,29,03,03,21.70
2021,06,29,03,04,21.80
2021,06,29,03,05,21.90
2021,06,29,03,06,21.90
2021,06,29,03,07,22.00
2021,06,29,03,08,22.00
2021,06,29,03,09,22.00
2021,06,29,03,10,22.00
2021,06,29,03,11,22.10
2021,06,29,03,12,22.10
2021,06,29,03,13,22.20
2021,06,29,03,14,22.30
2021,06,29,03,15,22.30
2021,06,29,03,16,22.40
2021,06,29,03,17,22.50
2021,06,29,03,18,22.50
2021,06,29,03,19,22.60
2021,06,29,03,20,22.60
2021,06,29,03,21,22.60
2021,06,29,03,22,22.60
2021,06,29,03,23,22.50
2021,06,29,03,24,22.50
2021,06,29,03,25,22.50
2021,06,29,03,26,22.40
2021,06,29,03,27,22.40
2021,06,29,03,28,22.40
2021,06,29,03,29,22.30
2021,06,29,03,30,22.20
2021,06,29,03,31,22.10
2021,06,29,03,32,22.00
2021,06,29,03,33,21.80
2021,06,29,03,34,21.70
2021,06,29,03,35,21.60
2021,06,29,03,36,21.60
2021,06,29,03,37,21.40
2021,06,29,03,38,21.40
2021,06,29,03,39,21.30
2021,06,29,03,40,21.30
2021,06,29,03,41,21.20
2021,06,29,03,42,21.10
2021,06,29,03,43,21.00
2021,06,29,03,44,21.00
2021,06,29,03,45,21.00
2021,06,29,03,46,20.90
2021,06,29,03,47,20.90
2021,06,29,03,48,20.80
2021,06,29,03,49,20.80
2021,06,29,03,50,20.70
2021,06,29,03,51,20.70
2021,06,29,03,52,20.60
2021,06,29,03,53,20.60
2021,06,29,03,54,20.60
2021,06,29,03,55,20.60
2021,06,29,03,56,20.50
2021,06,29,03,57,20.50
2021,06,29,03,58,20.50
2021,06,29,03,59,20.40
2021,06,29,04,00,20.40
2021,06,29,04,01,20.40
2021,06,29,04,02,20.30
2021,06,29,04,03,20.30
2021,06,29,04,04,20.30
2021,06,29,04,05,20.30
2021,06,29,04,06,20.30
2021,06,29,04,07,20.40
2021,06,29,04,08,20.40
2021,06,29,04,09,20.40
2021,06,29,04,10,20.40
2021,06,29,04,11,20.40
2021,06,29,04,12,20.50
2021,06,29,04,13,20.50
2021,06,29,04,14,20.50
2021,06,29,04,15,20.50
2021,06,29,04,16,20.60
2021,06,29,04,17,20.60
2021,06,29,04,18,20.60
2021,06,29,04,19,20.60
2021,06,29,04,20,20.60
2021,06,29,04,21,20.60
2021,06,29,04,22,20.60
2021,06,29,04,23,20.60
2021,06,29,04,24,20.60
2021,06,29,04,25,20.60
2021,06,29,04,26,20.60
2021,06,29,04,27,20.70
2021,06,29,04,28,20.70
2021,06,29,04,29,20.70
2021,06,29,04,30,20.70
2021,06,29,04,31,20.70
2021,06,29,04,32,20.70
2021,06,29,04,33,20.70
2021,06,29,04,34,20.70
2021,06,29,04,35,20.70
2021,06,29,04,36,20.70
2021,06,29,04,37,20.80
2021,06,29,04,38,20.80
2021,06,29,04,39,20.90
2021,06,29,04,40,21.00
2021,06,29,04,41,21.00
2021,06,29,04,42,21.10
2021,06,29,04,43,21.20
2021,06,29,04,44,21.30
2021,06,29,04,45,21.30
2021,06,29,04,46,21.30
2021,06,29,04,47,21.30
2021,06,29,04,48,21.30
2021,06,29,04,49,21.30
2021,06,29,04,50,21.30
2021,06,29,04,51,21.20
2021,06,29,04,52,21.10
2021,06,29,04,53,21.00
2021,06,29,04,54,21.00
2021,06,29,04,55,20.90
2021,06,29,04,56,20.90
2021,06,29,04,57,20.80
2021,06,29,04,58,20.70
2021,06,29,04,59,20.60
2021,06,29,05,00,20.40
2021,06,29,05,01,20.30
2021,06,29,05,02,20.10
2021,06,29,05,03,19.90
2021,06,29,05,04,19.70
2021,06,29,05,05,19.50
2021,06,29,05,06,19.30
2021,06,29,05,07,19.10
2021,06,29,05,08,18.80
2021,06,29,05,09,18.60
2021,06,29,05,10,18.40
2021,06,29,05,11,18.20
2021,06,29,05,12,18.10
2021,06,29,05,13,17.90
2021,06,29,05,14,17.80
2021,06,29,05,15,17.60
2021,06,29,05,16,17.40
2021,06,29,05,17,17.30
2021,06,29,05,18,17.10
2021,06,29,05,19,17.00
2021,06,29,05,20,16.90
2021,06,29,05,21,16.80
2021,06,29,05,22,16.70
2021,06,29,05,23,16.70
2021,06,29,05,24,16.70
2021,06,29,05,25,16.60
2021,06,29,05,26,16.50
2021,06,29,05,27,16.40
2021,06,29,05,28,16.40
2021,06,29,05,29,16.40
2021,06,29,05,30,16.30
2021,06,29,05,31,16.30
2021,06,29,05,32,16.20
2021,06,29,05,33,16.20
2021,06,29,05,34,16.20
2021,06,29,05,35,16.20
2021,06,29,05,36,16.20
2021,06,29,05,37,16.10
2021,06,29,05,38,16.10
2021,06,29,05,39,16.10
2021,06,29,05,40,16.10
2021,06,29,05,41,16.10
2021,06,29,05,42,16.10
2021,06,29,05,43,16.10
2021,06,29,05,44,16.10
2021,06,29,05,45,16.10
2021,06,29,05,46,16.10
2021,06,29,05,47,16.10
2021,06,29,05,48,16.10
2021,06,29,05,49,16.10
2021,06,29,05,50,16.10
2021,06,29,05,51,16.10
2021,06,29,05,52,16.20
2021,06,29,05,53,16.20
2021,06,29,05,54,16.30
2021,06,29,05,55,16.30
2021,06,29,05,56,16.40
2021,06,29,05,57,16.40
2021,06,29,05,58,16.40
2021,06,29,05,59,16.40
2021,06,29,06,00,16.40
2021,06,29,06,01,16.40
2021,06,29,06,02,16.40
2021,06,29,06,03,16.40
2021,06,29,06,04,16.50
2021,06,29,06,05,16.60
2021,06,29,06,06,16.60
2021,06,29,06,07,16.60
2021,06,29,06,08,16.60
2021,06,29,06,09,16.60
2021,06,29,06,10,16.40
2021,06,29,06,11,16.40
2021,06,29,06,12,16.40
2021,06,29,06,13,16.40
2021,06,29,06,14,16.30
2021,06,29,06,15,16.30
2021,06,29,06,16,16.20
2021,06,29,06,17,16.20
2021,06,29,06,18,16.20
2021,06,29,06,19,16.20
2021,06,29,06,20,16.20
2021,06,29,06,21,16.20
2021,06,29,06,22,16.20
2021,06,29,06,23,16.20
2021,06,29,06,24,16.20
2021,06,29,06,25,16.20
2021,06,29,06,26,16.20
2021,06,29,06,27,16.00
2021,06,29,06,28,15.90
2021,06,29,06,29,15.80
2021,06,29,06,30,15.70
2021,06,29,06,31,15.60
2021,06,29,06,32,15.60
2021,06,29,06,33,15.50
2021,06,29,06,34,15.50
2021,06,29,06,35,15.40
2021,06,29,06,36,15.30
2021,06,29,06,37,15.30
2021,06,29,06,38,15.30
2021,06,29,06,39,15.20
2021,06,29,06,40,15.20
2021,06,29,06,41,15.20
2021,06,29,06,42,15.10
2021,06,29,06,43,15.00
2021,06,29,06,44,15.00
2021,06,29,06,45,14.90
2021,06,29,06,46,14.80
2021,06,29,06,47,14.70
2021,06,29,06,48,14.70
2021,06,29,06,49,14.60
2021,06,29,06,50,14.60
2021,06,29,06,51,14.60
2021,06,29,06,52,14.60
2021,06,29,06,53,14.60
2021,06,29,06,54,14.60
2021,06,29,06,55,14.60
2021,06,29,06,56,14.60
2021,06,29,06,57,14.60
2021,06,29,06,58,14.60
2021,06,29,06,59,14.60
2021,06,29,07,00,14.60
2021,06,29,07,01,14.60
2021,06,29,07,02,14.60
2021,06,29,07,03,14.60
2021,06,29,07,04,14.60
2021,06,29,07,05,14.60
2021,06,29,07,06,14.50
2021,06,29,07,07,14.50
2021,06,29,07,08,14.50
2021,06,29,07,09,14.50
2021,06,29,07,10,14.40
2021,06,29,07,11,14.40
2021,06,29,07,12,14.40
2021,06,29,07,13,14.40
2021,06,29,07,14,14.40
2021,06,29,07,15,14.30
2021,06,29,07,16,14.30
2021,06,29,07,17,14.30
2021,06,29,07,18,14.40
2021,06,29,07,19,14.40
2021,06,29,07,20,14.50
2021,06,29,07,21,14.50
2021,06,29,07,22,14.60
2021,06,29,07,23,14.60
2021,06,29,07,24,14.60
2021,06,29,07,25,14.60
2021,06,29,07,26,14.60
2021,06,29,07,27,14.60
2021,06,29,07,28,14.60
2021,06,29,07,29,14.50
2021,06,29,07,30,14.60
2021,06,29,07,31,14.60
2021,06,29,07,32,14.70
2021,06,29,07,33,14.70
2021,06,29,07,34,14.80
2021,06,29,07,35,14.80
2021,06,29,07,36,14.90
2021,06,29,07,37,14.90
2021,06,29,07,38,14.90
2021,06,29,07,39,15.00
2021,06,29,07,40,14.90
2021,06,29,07,41,14.80
2021,06,29,07,42,14.80
2021,06,29,07,43,14.80
2021,06,29,07,44,14.80
2021,06,29,07,45,14.80
2021,06,29,07,46,14.90
2021,06,29,07,47,14.90
2021,06,29,07,48,14.90
2021,06,29,07,49,14.90
2021,06,29,07,50,14.90
2021,06,29,07,51,14.90
2021,06,29,07,52,14.90
2021,06,29,07,53,14.90
2021,06,29,07,54,14.90
2021,06,29,07,55,14.90
2021,06,29,07,56,14.90
2021,06,29,07,57,14.90
2021,06,29,07,58,14.90
2021,06,29,07,59,14.90
2021,06,29,08,00,14.90
2021,06,29,08,01,15.00
2021,06,29,08,02,15.00
2021,06,29,08,03,15.10
2021,06,29,08,04,15.10
2021,06,29,08,05,15.10
2021,06,29,08,06,15.10
2021,06,29,08,07,15.10
2021,06,29,08,08,15.20
2021,06,29,08,09,15.20
2021,06,29,08,10,15.20
2021,06,29,08,11,15.20
2021,06,29,08,12,15.20
2021,06,29,08,13,15.10
2021,06,29,08,14,15.10
2021,06,29,08,15,15.10
2021,06,29,08,16,15.10
2021,06,29,08,17,15.10
2021,06,29,08,18,15.10
2021,06,29,08,19,15.20
2021,06,29,08,20,15.20
2021,06,29,08,21,15.30
2021,06,29,08,22,15.20
2021,06,29,08,23,15.20
2021,06,29,08,24,15.20
2021,06,29,08,25,15.30
2021,06,29,08,26,15.30
2021,06,29,08,27,15.30
2021,06,29,08,28,15.30
2021,06,29,08,29,15.30
2021,06,29,08,30,15.30
2021,06,29,08,31,15.30
2021,06,29,08,32,15.30
2021,06,29,08,33,15.30
2021,06,29,08,34,15.40
2021,06,29,08,35,15.50
2021,06,29,08,36,15.50
2021,06,29,08,37,15.60
2021,06,29,08,38,15.60
2021,06,29,08,39,15.70
2021,06,29,08,40,15.80
2021,06,29,08,41,15.80
2021,06,29,08,42,15.90
2021,06,29,08,43,16.00
2021,06,29,08,44,16.10
2021,06,29,08,45,16.10
2021,06,29,08,46,16.10
2021,06,29,08,47,16.20
2021,06,29,08,48,16.30
2021,06,29,08,49,16.30
2021,06,29,08,50,16.40
2021,06,29,08,51,16.40
2021,06,29,08,52,16.60
2021,06,29,08,53,16.60
2021,06,29,08,54,16.70
2021,06,29,08,55,16.70
2021,06,29,08,56,16.70
2021,06,29,08,57,16.70
2021,06,29,08,58,16.80
2021,06,29,08,59,16.90
2021,06,29,09,00,16.90
2021,06,29,09,01,17.00
2021,06,29,09,02,17.00
2021,06,29,09,03,17.00
2021,06,29,09,04,17.10
2021,06,29,09,05,17.20
2021,06,29,09,06,17.30
2021,06,29,09,07,17.30
2021,06,29,09,08,17.50
2021,06,29,09,09,17.60
2021,06,29,09,10,17.80
2021,06,29,09,11,17.90
2021,06,29,09,12,18.00
2021,06,29,09,13,18.20
2021,06,29,09,14,18.20
2021,06,29,09,15,18.20
2021,06,29,09,16,18.20
2021,06,29,09,17,18.30
2021,06,29,09,18,18.30
2021,06,29,09,19,18.30
2021,06,29,09,20,18.40
2021,06,29,09,21,18.50
2021,06,29,09,22,18.50
2021,06,29,09,23,18.60
2021,06,29,09,24,18.70
2021,06,29,09,25,18.80
2021,06,29,09,26,18.90
2021,06,29,09,27,19.00
2021,06,29,09,28,19.10
2021,06,29,09,29,19.20
2021,06,29,09,30,19.30
2021,06,29,09,31,19.40
2021,06,29,09,32,19.40
2021,06,29,09,33,19.50
2021,06,29,09,34,19.60
2021,06,29,09,35,19.70
2021,06,29,09,36,19.80
2021,06,29,09,37,19.90
2021,06,29,09,38,20.00
2021,06,29,09,39,20.10
2021,06,29,09,40,20.10
2021,06,29,09,41,20.20
2021,06,29,09,42,20.20
2021,06,29,09,43,20.20
2021,06,29,09,44,20.30
2021,06,29,09,45,20.30
2021,06,29,09,46,20.40
2021,06,29,09,47,20.50
2021,06,29,09,48,20.50
2021,06,29,09,49,20.60
2021,06,29,09,50,20.70
2021,06,29,09,51,20.80
2021,06,29,09,52,20.90
2021,06,29,09,53,21.00
2021,06,29,09,54,21.00
2021,06,29,09,55,20.90
2021,06,29,09,56,20.80
2021,06,29,09,57,20.60
2021,06,29,09,58,20.60
2021,06,29,09,59,20.50
2021,06,29,10,00,20.40
2021,06,29,10,01,20.20
2021,06,29,10,02,20.10
2021,06,29,10,03,20.00
2021,06,29,10,04,19.90
2021,06,29,10,05,19.90
2021,06,29,10,06,19.90
2021,06,29,10,07,19.80
2021,06,29,10,08,19.80
2021,06,29,10,09,19.80
2021,06,29,10,10,19.80
2021,06,29,10,11,19.70
2021,06,29,10,12,19.70
2021,06,29,10,13,19.70
2021,06,29,10,14,19.70
2021,06,29,10,15,19.70
2021,06,29,10,16,19.60
2021,06,29,10,17,19.60
2021,06,29,10,18,19.50
2021,06,29,10,19,19.50
2021,06,29,10,20,19.50
2021,06,29,10,21,19.50
2021,06,29,10,22,19.60
2021,06,29,10,23,19.60
2021,06,29,10,24,19.60
2021,06,29,10,25,19.60
2021,06,29,10,26,19.60
2021,06,29,10,27,19.70
2021,06,29,10,28,19.70
2021,06,29,10,29,19.70
2021,06,29,10,30,19.70
2021,06,29,10,31,19.70
2021,06,29,10,32,19.60
2021,06,29,10,33,19.60
2021,06,29,10,34,19.60
2021,06,29,10,35,19.70
2021,06,29,10,36,19.70
2021,06,29,10,37,19.70
2021,06,29,10,38,19.70
2021,06,29,10,39,19.70
2021,06,29,10,40,19.70
2021,06,29,10,41,19.70
2021,06,29,10,42,19.70
2021,06,29,10,43,19.70
2021,06,29,10,44,19.70
2021,06,29,10,45,19.70
2021,06,29,10,46,19.80
2021,06,29,10,47,19.80
2021,06,29,10,48,19.80
2021,06,29,10,49,19.70
2021,06,29,10,50,19.70
2021,06,29,10,51,19.70
2021,06,29,10,52,19.70
2021,06,29,10,53,19.80
2021,06,29,10,54,19.80
2021,06,29,10,55,19.80
2021,06,29,10,56,19.90
2021,06,29,10,57,19.90
2021,06,29,10,58,19.90
2021,06,29,10,59,19.90
2021,06,29,11,00,19.90
2021,06,29,11,01,19.90
2021,06,29,11,02,20.00
2021,06,29,11,03,20.10
2021,06,29,11,04,20.10
2021,06,29,11,05,20.10
2021,06,29,11,06,20.10
2021,06,29,11,07,20.10
2021,06,29,11,08,20.10
2021,06,29,11,09,20.20
2021,06,29,11,10,20.20
2021,06,29,11,11,20.20
2021,06,29,11,12,20.20
2021,06,29,11,13,20.20
2021,06,29,11,14,20.20
2021,06,29,11,15,20.20
2021,06,29,11,16,20.20
2021,06,29,11,17,20.20
2021,06,29,11,18,20.30
2021,06,29,11,19,20.30
2021,06,29,11,20,20.40
2021,06,29,11,21,20.50
2021,06,29,11,22,20.60
2021,06,29,11,23,20.70
2021,06,29,11,24,20.70
2021,06,29,11,25,20.80
2021,06,29,11,26,20.90
2021,06,29,11,27,21.00
2021,06,29,11,28,21.00
2021,06,29,11,29,21.10
2021,06,29,11,30,21.10
2021,06,29,11,31,21.10
2021,06,29,11,32,21.10
2021,06,29,11,33,21.00
2021,06,29,11,34,20.90
2021,06,29,11,35,20.80
2021,06,29,11,36,20.70
2021,06,29,11,37,20.50
2021,06,29,11,38,20.40
2021,06,29,11,39,20.30
2021,06,29,11,40,20.20
2021,06,29,11,41,20.20
2021,06,29,11,42,20.20
2021,06,29,11,43,20.20
2021,06,29,11,44,20.20
2021,06,29,11,45,20.20
2021,06,29,11,46,20.20
2021,06,29,11,47,20.20
2021,06,29,11,48,20.20
2021,06,29,11,49,20.10
2021,06,29,11,50,20.00
2021,06,29,11,51,19.90
2021,06,29,11,52,19.90
2021,06,29,11,53,19.90
2021,06,29,11,54,19.80
2021,06,29,11,55,19.80
2021,06,29,11,56,19.80
2021,06,29,11,57,19.90
2021,06,29,11,58,19.90
2021,06,29,11,59,20.00
2021,06,29,12,00,20.10
2021,06,29,12,01,20.20
2021,06,29,12,02,20.30
2021,06,29,12,03,20.50
2021,06,29,12,04,20.50
2021,06,29,12,05,20.70
2021,06,29,12,06,20.80
2021,06,29,12,07,20.80
2021,06,29,12,08,20.90
2021,06,29,12,09,21.00
2021,06,29,12,10,21.00
2021,06,29,12,11,21.10
2021,06,29,12,12,21.20
2021,06,29,12,13,21.30
2021,06,29,12,14,21.40
2021,06,29,12,15,21.50
2021,06,29,12,16,21.60
2021,06,29,12,17,21.70
2021,06,29,12,18,21.80
2021,06,29,12,19,21.90
2021,06,29,12,20,22.00
2021,06,29,12,21,22.10
2021,06,29,12,22,22.20
2021,06,29,12,23,22.30
2021,06,29,12,24,22.40
2021,06,29,12,25,22.50
2021,06,29,12,26,22.50
2021,06,29,12,27,22.60
2021,06,29,12,28,22.60
2021,06,29,12,29,22.70
2021,06,29,12,30,22.60
2021,06,29,12,31,22.70
2021,06,29,12,32,22.70
2021,06,29,12,33,22.70
2021,06,29,12,34,22.70
2021,06,29,12,35,22.70
2021,06,29,12,36,22.80
2021,06,29,12,37,22.80
2021,06,29,12,38,22.90
2021,06,29,12,39,22.90
2021,06,29,12,40,23.00
2021,06,29,12,41,23.20
2021,06,29,12,42,23.30
2021,06,29,12,43,23.30
2021,06,29,12,44,23.50
2021,06,29,12,45,23.60
2021,06,29,12,46,23.70
2021,06,29,12,47,23.80
2021,06,29,12,48,23.90
2021,06,29,12,49,24.00
2021,06,29,12,50,24.10
2021,06,29,12,51,24.20
2021,06,29,12,52,24.30
2021,06,29,12,53,24.40
2021,06,29,12,54,24.50
2021,06,29,12,55,24.60
2021,06,29,12,56,24.70
2021,06,29,12,57,24.70
2021,06,29,12,58,24.70
2021,06,29,12,59,24.70
2021,06,29,13,00,24.70
2021,06,29,13,01,24.80
2021,06,29,13,02,24.80
2021,06,29,13,03,24.80
2021,06,29,13,04,24.80
2021,06,29,13,05,24.90
2021,06,29,13,06,24.90
2021,06,29,13,07,24.90
2021,06,29,13,08,24.90
2021,06,29,13,09,24.90
2021,06,29,13,10,25.00
2021,06,29,13,11,25.00
2021,06,29,13,12,25.00
2021,06,29,13,13,25.10
2021,06,29,13,14,25.10
2021,06,29,13,15,25.20
2021,06,29,13,16,25.20
2021,06,29,13,17,25.30
2021,06,29,13,18,25.40
2021,06,29,13,19,25.40
2021,06,29,13,20,25.50
2021,06,29,13,21,25.50
2021,06,29,13,22,25.50
2021,06,29,13,23,25.40
2021,06,29,13,24,25.40
2021,06,29,13,25,25.30
2021,06,29,13,26,25.30
2021,06,29,13,27,25.30
2021,06,29,13,28,25.20
2021,06,29,13,29,25.20
2021,06,29,13,30,25.10
2021,06,29,13,31,25.10
2021,06,29,13,32,25.20
2021,06,29,13,33,25.20
2021,06,29,13,34,25.30
2021,06,29,13,35,25.40
2021,06,29,13,36,25.40
2021,06,29,13,37,25.30
2021,06,29,13,38,25.40
2021,06,29,13,39,25.50
2021,06,29,13,40,25.50
2021,06,29,13,41,25.50
2021,06,29,13,42,25.60
2021,06,29,13,43,25.60
2021,06,29,13,44,25.50
2021,06,29,13,45,25.40
2021,06,29,13,46,25.20
2021,06,29,13,47,25.20
2021,06,29,13,48,25.10
2021,06,29,13,49,25.10
2021,06,29,13,50,25.00
2021,06,29,13,51,25.00
2021,06,29,13,52,25.00
2021,06,29,13,53,24.90
2021,06,29,13,54,24.90
2021,06,29,13,55,24.80
2021,06,29,13,56,24.60
2021,06,29,13,57,24.50
2021,06,29,13,58,24.50
2021,06,29,13,59,24.40
2021,06,29,14,00,24.30
2021,06,29,14,01,24.30
2021,06,29,14,02,24.30
2021,06,29,14,03,24.30
2021,06,29,14,04,24.30
2021,06,29,14,05,24.40
2021,06,29,14,06,24.40
2021,06,29,14,07,24.40
2021,06,29,14,08,24.40
2021,06,29,14,09,24.40
2021,06,29,14,10,24.40
2021,06,29,14,11,24.30
2021,06,29,14,12,24.20
2021,06,29,14,13,24.10
2021,06,29,14,14,24.10
2021,06,29,14,15,24.10
2021,06,29,14,16,24.10
2021,06,29,14,17,24.10
2021,06,29,14,18,24.10
2021,06,29,14,19,24.10
2021,06,29,14,20,24.10
2021,06,29,14,21,24.10
2021,06,29,14,22,24.10
2021,06,29,14,23,24.10
2021,06,29,14,24,23.90
2021,06,29,14,25,23.90
2021,06,29,14,26,23.90
2021,06,29,14,27,23.80
2021,06,29,14,28,23.80
2021,06,29,14,29,23.90
2021,06,29,14,30,23.90
2021,06,29,14,31,23.90
2021,06,29,14,32,24.00
2021,06,29,14,33,24.10
2021,06,29,14,34,24.10
2021,06,29,14,35,24.20
2021,06,29,14,36,24.20
2021,06,29,14,37,24.30
2021,06,29,14,38,24.40
2021,06,29,14,39,24.50
2021,06,29,14,40,24.60
2021,06,29,14,41,24.70
2021,06,29,14,42,24.80
2021,06,29,14,43,24.90
2021,06,29,14,44,25.10
2021,06,29,14,45,25.40
2021,06,29,14,46,25.60
2021,06,29,14,47,25.80
2021,06,29,14,48,26.00
2021,06,29,14,49,26.20
2021,06,29,14,50,26.40
2021,06,29,14,51,26.60
2021,06,29,14,52,26.80
2021,06,29,14,53,27.10
2021,06,29,14,54,27.30
2021,06,29,14,55,27.60
2021,06,29,14,56,27.90
2021,06,29,14,57,28.20
2021,06,29,14,58,28.60
2021,06,29,14,59,28.80
2021,06,29,15,00,29.00
2021,06,29,15,01,29.30
2021,06,29,15,02,29.50
2021,06,29,15,03,29.70
2021,06,29,15,04,29.90
2021,06,29,15,05,30.10
2021,06,29,15,06,30.20
2021,06,29,15,07,30.40
2021,06,29,15,08,30.60
2021,06,29,15,09,30.70
2021,06,29,15,10,30.80
2021,06,29,15,11,31.00
2021,06,29,15,12,31.10
2021,06,29,15,13,31.20
2021,06,29,15,14,31.30
2021,06,29,15,15,31.40
2021,06,29,15,16,31.50
2021,06,29,15,17,31.60
2021,06,29,15,18,31.80
2021,06,29,15,19,31.80
2021,06,29,15,20,31.80
2021,06,29,15,21,31.80
2021,06,29,15,22,31.80
2021,06,29,15,23,31.80
2021,06,29,15,24,31.80
2021,06,29,15,25,31.80
2021,06,29,15,26,31.80
2021,06,29,15,27,31.80
2021,06,29,15,28,31.80
2021,06,29,15,29,31.80
2021,06,29,15,30,31.70
2021,06,29,15,31,31.70
2021,06,29,15,32,31.60
2021,06,29,15,33,31.60
2021,06,29,15,34,31.50
2021,06,29,15,35,31.40
2021,06,29,15,36,31.40
2021,06,29,15,37,31.40
2021,06,29,15,38,31.50
2021,06,29,15,39,31.60
2021,06,29,15,40,31.60
2021,06,29,15,41,31.70
2021,06,29,15,42,31.70
2021,06,29,15,43,31.70
2021,06,29,15,44,31.70
2021,06,29,15,45,31.70
2021,06,29,15,46,31.70
2021,06,29,15,47,31.70
2021,06,29,15,48,31.80
2021,06,29,15,49,31.80
2021,06,29,15,50,31.80
2021,06,29,15,51,31.80
2021,06,29,15,52,31.80
2021,06,29,15,53,31.80
2021,06,29,15,54,31.90
2021,06,29,15,55,31.90
2021,06,29,15,56,32.00
2021,06,29,15,57,32.10
2021,06,29,15,58,32.20
2021,06,29,15,59,32.20
2021,06,29,16,00,32.20
2021,06,29,16,01,32.20
2021,06,29,16,02,32.20
2021,06,29,16,03,32.30
2021,06,29,16,04,32.30
2021,06,29,16,05,32.40
2021,06,29,16,06,32.40
2021,06,29,16,07,32.40
2021,06,29,16,08,32.30
2021,06,29,16,09,32.30
2021,06,29,16,10,32.30
2021,06,29,16,11,32.30
2021,06,29,16,12,32.30
2021,06,29,16,13,32.30
2021,06,29,16,14,32.30
2021,06,29,16,15,32.20
2021,06,29,16,16,32.20
2021,06,29,16,17,32.10
2021,06,29,16,18,32.10
2021,06,29,16,19,32.10
2021,06,29,16,20,32.10
2021,06,29,16,21,32.10
2021,06,29,16,22,32.10
2021,06,29,16,23,32.00
2021,06,29,16,24,31.90
2021,06,29,16,25,31.70
2021,06,29,16,26,31.70
2021,06,29,16,27,31.70
2021,06,29,16,28,31.60
2021,06,29,16,29,31.60
2021,06,29,16,30,31.60
2021,06,29,16,31,31.50
2021,06,29,16,32,31.40
2021,06,29,16,33,31.40
2021,06,29,16,34,31.30
2021,06,29,16,35,31.20
2021,06,29,16,36,31.10
2021,06,29,16,37,31.10
2021,06,29,16,38,31.10
2021,06,29,16,39,31.10
2021,06,29,16,40,31.20
2021,06,29,16,41,31.10
2021,06,29,16,42,31.10
2021,06,29,16,43,31.10
2021,06,29,16,44,31.00
2021,06,29,16,45,31.00
2021,06,29,16,46,31.00
2021,06,29,16,47,30.90
2021,06,29,16,48,30.90
2021,06,29,16,49,31.00
2021,06,29,16,50,31.00
2021,06,29,16,51,31.10
2021,06,29,16,52,31.10
2021,06,29,16,53,31.10
2021,06,29,16,54,31.10
2021,06,29,16,55,31.10
2021,06,29,16,56,31.10
2021,06,29,16,57,31.10
2021,06,29,16,58,31.10
2021,06,29,16,59,31.10
2021,06,29,17,00,31.10
2021,06,29,17,01,31.10
2021,06,29,17,02,31.10
2021,06,29,17,03,31.20
2021,06,29,17,04,31.20
2021,06,29,17,05,31.10
2021,06,29,17,06,31.10
2021,06,29,17,07,31.00
2021,06,29,17,08,31.00
2021,06,29,17,09,31.00
2021,06,29,17,10,30.90
2021,06,29,17,11,30.90
2021,06,29,17,12,30.80
2021,06,29,17,13,30.80
2021,06,29,17,14,30.70
2021,06,29,17,15,30.70
2021,06,29,17,16,30.70
2021,06,29,17,17,30.70
2021,06,29,17,18,30.70
2021,06,29,17,19,30.70